Flag for Iceland Weather past 2 weeks in Reykjavik, Iceland

Now
41 °F

Partly cloudy.


Feels Like: 33 °F
Forecast: N/A
Wind: 14 mph from Southeast

Location: Reykjavik Airport

Current Time: Dec 28, 2014 at 6:02:44 PM

Latest Report: Dec 28, 2014 at 5:00 PM


Visibility: N/A

Pressure: 30.07 "Hg

Humidity: 76%

Dew point: 34 °F

Location of ReykjavikLocation

Historic Weather in Reykjavik — Graph

°F

Reykjavik temperature yesterday

Maximum temperature yesterday: 28 °F (at 2:00 AM)
Minimum temperature yesterday: 21 °F (at 12:00 PM)
Average temperature yesterday: 25 °F

Past Weeks' High & Low Weather Summary

 TemperatureHumidityPressure
High41 °F (Dec 20, 6:00 PM)100% (Dec 18, 4:00 AM)30.39 "Hg (Dec 18, 4:00 AM)
Low16 °F (Dec 16, 2:00 AM)56% (Dec 23, 5:00 AM)28.41 "Hg (Dec 17, 10:00 PM)
Average30 °F78%29.39 "Hg
* Reported Dec 13 5:00 PM — Dec 28 5:00 PM, Reykjavik, Weather by CustomWeather, © 2014

Note: Actual official high and low records may vary slightly from our data, if they occured in-between our weather recording intervals... More about our weather records

Advertising

Reykjavik weather history for previous 24 hours

 ConditionsComfort  
Time TempWeatherWind HumidityBarometerVisibility
5:00 PM
Dec 28
41 °FPartly cloudy.14 mph76%30.07 "HgN/A
4:00 PM41 °FPartly cloudy.14 mph76%30.09 "HgN/A
3:00 PM41 °FBroken clouds.15 mph76%30.09 "HgN/A
2:00 PM41 °FBroken clouds.14 mph76%30.12 "HgN/A
1:00 PM41 °FBroken clouds.12 mph76%30.15 "HgN/A
12:00 PM41 °FBroken clouds.10 mph76%30.15 "HgN/A
11:00 AM39 °FPartly cloudy.12 mph75%30.18 "HgN/A
10:00 AM39 °FPartly cloudy.12 mph75%30.18 "HgN/A
9:00 AM39 °FPartly cloudy.13 mph75%30.18 "HgN/A
8:00 AM39 °FClear.15 mph75%30.21 "Hg10 mi
7:00 AM37 °FClear.13 mph75%30.21 "Hg10 mi
6:00 AM36 °FClear.14 mph81%30.21 "Hg10 mi
5:00 AM36 °FClear.12 mph75%30.24 "Hg10 mi
4:00 AM36 °FPassing clouds.10 mph70%30.27 "HgN/A
3:00 AM34 °FPassing clouds.7 mph70%30.30 "HgN/A
2:00 AM32 °FPassing clouds.8 mph64%30.33 "HgN/A
1:00 AM30 °FPassing clouds.6 mph69%30.33 "HgN/A
12:00 AM30 °FClear.9 mph59%30.33 "Hg10 mi
11:00 PM
Dec 27
28 °FClear.12 mph64%30.33 "Hg10 mi
10:00 PM27 °FClear.No wind64%30.36 "Hg10 mi
9:00 PM27 °FClear.9 mph59%30.39 "Hg10 mi
8:00 PM25 °FClear.7 mph63%30.39 "Hg10 mi
7:00 PM27 °FPassing clouds.5 mph59%30.39 "HgN/A
6:00 PM25 °FClear.6 mph63%30.39 "Hg10 mi
Weather by CustomWeather, © 2014

See weather overviewHow to use our weather pages